Showing default

COSMOS 2425 (GLONASS), 29670

Orbit data source: Space-Track

COSMOS 2425 (GLONASS), 29670 is a Commonwealth of Independent States-origin payload satellite in MEO that was launched on Mon, 25 Dec 2006 UTC via a PROTON-K/DM-2 launch vehicle from the Tyuratam Missile And Space Complex (TTMTR). Payload-class satellites include a variety of spacecraft equipped with specific instruments for various scientific and technological missions. These include communications satellites like Starlink; space stations such as the ISS; scientific satellites like the Hubble; Earth observation satellites from companies like Planet Labs, Umbra, and HawkEye 360; GPS; miniature CubeSats for education and research; and military/defense satellites.

Loading next visibility...
Identifier
29670, 2006-062A
Orbit
MEO
Country
Flag of CISCIS
Related business
Manufacturer
Resehetnev ISS
Mission
Non-operational Defense Navigation
Bus & Motor
URAGAN, Unknown motor
Mass
1,450 kg wet, ~1,200 kg dry
Launch date (UTC)
2006-12-25 (19 years ago)
Launch vehicle
PROTON-K/DM-2
Launch site
Tyuratam Missile And Space Complex (TTMTR)
Object type
Payload
Rocket body
Debris
Shape & HBR
Cyl + 1 Arm + 2 Pan, 3.9 m
Radar Cross Section
8.145 m², Large (>1 m²)

Expand to show TLE details & history
Last TLE update: 4 days ago

TLE from 4 days ago
0 COSMOS 2425 (GLONASS)
1 29670U 06062A   26030.79905807  .00000062  00000-0  00000-0 0  9992
2 29670  64.6933 198.8520 0022259 358.5142 187.1669  2.13116675148652
Epoch: 2026-01-30T19:10Z
TLE epoch observation values (Epoch: 2026-01-30T19:10:38.617Z)
Latitude
-5.17786°
Longitude
-36.38402°
Altitude
19,186.415 km
Speed
3.944 km/s
True Right ascension
01h 25m 14s
True Declination
-5° 10' 09"
Sunlit
Object was in daylight at epoch
Visualization orbit readout
Latitude
Unknown
Longitude
Unknown
Altitude
Unknown
Speed
Unknown
Apparent Right ascension
Unknown
Apparent Declination
Unknown
Sunlit
N/A
Visualization observer readout
Local Sidereal Time
17:29:25
Azimuth
Unknown
Elevation
Unknown
Doppler factor
Unknown
Orbital elements
Apogee altitude
19,185.117 km
Perigee altitude
19,071.567 km
Semi-major axis
25,506.479 km
Eccentricity
0.00223
Inclination
64.6933°
RAAN
198.852°
Arg. of periapsis
358.5142°
True anomaly
187.13517°
Mean anomaly
187.1669°
Eccentric anomaly
187.15102°
Mean motion
0.5328 °/min
Orbital period
675.67 mins
BSTAR
0
Loading maneuver chart data...
Computing Atmospheric mass density...
Loading historical data...
Loading historical data...
Loading historical data...
Loading historical data...
Loading historical data...
Loading historical data...
Loading historical data...

Documentation

Showing up to 5 results
|